Lone Rock, WI

1:27 PM CDT on May 24, 2017 (GMT -0500)
Tri-County Regional

Weather History for KLNR - January, 2012

Change the Weather History Date:

Tuesday, January 24, 2012

  Actual Average Record
Temperature  
Mean Temperature 23 °F -  
Max Temperature 30 °F 25 °F 39 °F (2006)
Min Temperature 16 °F 9 °F -18 °F (2008)
Degree Days  
Heating Degree Days 42    
Moisture  
Dew Point 17 °F    
Average Humidity 74    
Maximum Humidity 84    
Minimum Humidity 66    
Precipitation  
Precipitation 0.00 in - - ()
Sea Level Pressure  
Sea Level Pressure 30.17 in    
Wind  
Wind Speed 9 mph (West)    
Max Wind Speed 13 mph    
Max Gust Speed -    
Visibility 4 miles    
Events      
Averages and records for this station are not official NWS values.
T = Trace of Precipitation, MM = Missing Value Source: NWS Daily Summary

Daily Weather History Graph

Daily Weather History Graph

Search for Another Location

Airport or City:

Trip Planner

Search our weather history database for the weather conditions in past years. The results will help you decide how hot, cold, wet, or windy it might be!

Date:

Astronomy

Jan. 24, 2012 Rise Set
Actual Time 7:24 AM CST 5:01 PM CST
Civil Twilight 6:53 AM CST 5:32 PM CST
Nautical Twilight 6:18 AM CST 6:07 PM CST
Astronomical Twilight 5:44 AM CST 6:40 PM CST
Moon 7:50 AM CST 6:57 PM CST
Length of Visible Light 10h 39m
Length of Day
9h 37m
New Moon, 2% of the Moon is Illuminated
Jan 24
New Moon
Jan 30
First Quarter
Feb 7
Full
Feb 14
Last Quarter
Feb 21
New

Hourly Weather History & Observations

Time (CST) Temp. Windchill Dew Point Humidity Pressure Visibility Wind Dir Wind Speed Gust Speed Precip Events Conditions
12:56 AM 25.0 °F 14.8 °F 19.0 °F 78% 29.92 in 5.0 mi West 10.4 mph - N/A   Haze
1:56 AM 24.1 °F 12.5 °F 18.0 °F 77% 29.96 in 4.0 mi West 12.7 mph - N/A   Haze
2:56 AM 24.1 °F 13.7 °F 18.0 °F 77% 29.98 in 5.0 mi West 10.4 mph - N/A   Haze
3:17 AM 24.8 °F 15.3 °F 17.6 °F 74% 29.97 in 5.0 mi West 9.2 mph - N/A   Haze
3:56 AM 24.1 °F 13.1 °F 17.1 °F 75% 30.01 in 5.0 mi West 11.5 mph - N/A   Haze
4:39 AM 24.8 °F 15.3 °F 17.6 °F 74% 30.01 in 5.0 mi West 9.2 mph - N/A   Haze
4:56 AM 24.1 °F 16.0 °F 17.1 °F 75% 30.05 in 5.0 mi West 6.9 mph - N/A   Haze
5:56 AM 24.1 °F 14.4 °F 17.1 °F 75% 30.09 in 5.0 mi West 9.2 mph - N/A   Haze
6:42 AM 24.8 °F 14.6 °F 17.6 °F 74% 30.09 in 5.0 mi West 10.4 mph - N/A   Haze
6:56 AM 24.1 °F 13.7 °F 17.1 °F 75% 30.12 in 5.0 mi West 10.4 mph - N/A   Haze
7:40 AM 24.8 °F 14.0 °F 17.6 °F 74% 30.12 in 4.0 mi West 11.5 mph - N/A   Haze
7:56 AM 24.1 °F 14.4 °F 17.1 °F 75% 30.15 in 4.0 mi West 9.2 mph - N/A   Haze
8:56 AM 24.1 °F 15.2 °F 17.1 °F 75% 30.18 in 4.0 mi West 8.1 mph - N/A   Haze
9:56 AM 25.0 °F 14.2 °F 17.1 °F 72% 30.20 in 4.0 mi West 11.5 mph - N/A   Haze
10:56 AM 26.1 °F 15.6 °F 18.0 °F 71% 30.23 in 4.0 mi WNW 11.5 mph - N/A   Haze
11:56 AM 27.0 °F 19.5 °F 19.0 °F 72% 30.24 in 4.0 mi West 6.9 mph - N/A   Haze
12:56 PM 28.9 °F 21.9 °F 19.0 °F 67% 30.24 in 4.0 mi WNW 6.9 mph - N/A   Haze
1:56 PM 30.0 °F 24.1 °F 19.9 °F 66% 30.25 in 5.0 mi WSW 5.8 mph - N/A   Haze
2:56 PM 30.0 °F 24.1 °F 21.0 °F 69% 30.26 in 4.0 mi West 5.8 mph - N/A   Haze
3:56 PM 28.9 °F 22.8 °F 19.0 °F 67% 30.28 in 4.0 mi WSW 5.8 mph - N/A   Haze
5:56 PM 23.0 °F - 16.0 °F 74% 30.32 in 5.0 mi Calm Calm - N/A   Haze
6:56 PM 21.0 °F 12.4 °F 15.1 °F 78% 30.35 in 4.0 mi West 6.9 mph - N/A   Haze
7:56 PM 23.0 °F 17.0 °F 16.0 °F 74% 30.34 in 4.0 mi WSW 4.6 mph - N/A   Haze
8:56 PM 19.0 °F 13.9 °F 14.0 °F 81% 30.32 in 4.0 mi ENE 3.5 mph - N/A   Haze
9:56 PM 16.0 °F 10.4 °F 12.0 °F 84% 30.32 in 4.0 mi North 3.5 mph - N/A   Clear
11:56 PM 17.1 °F - 12.9 °F 84% 30.34 in 3.0 mi Calm Calm - N/A   Scattered Clouds